Weather in Lomza

Poland     53°10′23″N   22°04′06″E
temp.,
°C
wind,
m/s
gust,
m/s
humid.,
%
clouds,
%
prec.,
mm/h
press.,
hPa
HPBL,
m
6 may, thu
thu623:00+6sw41090100 0.0 1001229
02:00+6wsw61487100 0.3 1001545
05:00+5wsw71385100 0.0 10021007
08:00+5wsw91373100 0.1 10041337
11:00+9wsw1015535 0.1 10051962
14:00+11wsw11154761 0.1 10062685
17:00+11wsw713555 0.1 10052588
20:00+7sw41074100 0.3 1006324
7 may, fri
fri723:00+6sw41290100 0.6 1006418
02:00+3wsw3596100 0.6 1007106
05:00+3ssw2394100 0.0 100658
08:00+7sse3583100 0.0 1005374
11:00+5ene2393100 3.4 1004414
14:00+5ne4495100 9.2 1003235
17:00+5nne3596100 1.5 1002332
20:00+3nnw61098100 4.6 1004765
8 may, sat
sat823:00+4wnw4992100 1.7 1007575
02:00+3wnw61295100 1.7 1009598
05:00+2wnw6109295 0.0 1012701
08:00+4wnw68786 0.0 1014866
11:00+7w7966100 0.0 10151389
14:00+10w796481 0.5 10151700
17:00+10wnw596395 1.1 10161532
20:00+5wnw35875 1.9 101881
9 may, sun
sun923:00+3w33925 0.0 101930
02:00+2sw339321 0.0 102139
05:00+1sw3391100 0.0 102139
08:00+7s4778100 0.0 1021321
11:00+12s675565 0.0 10201200
14:00+15s795424 0.0 10191659
17:00+15s6963100 0.0 10181137
20:00+10sse4117895 0.0 1018219
10 may, mon
mon1023:00+9sse51381100 0.0 1019226
02:00+8sse5118270 0.0 1019230
05:00+7sse513845 0.0 1019271
08:00+12sse6147039 0.0 1019513
11:00+17sse8125811 0.0 1018842
14:00+19sse811575 0.0 10171193
17:00+19sse813645 0.0 10161094
20:00+15se513805 0.0 1016319